Location: *
(60.1759°S, 155.0663°W)
Time: 23:23:39
(UTC+00:00)

Genesis I - Pass Details

Date: 17 September 2019
Orbit: 487 x 537 km, 64.5° (Epoch: 15 October)

Event Time Altitude Azimuth Distance (km) Brightness Sun altitude
Exits shadow 12:46:53 44° 179° (S) 724 4.1 -25.2°
Maximum altitude 12:46:58 44° 175° (S) 723 4.2 -25.2°
Drops below altitude 10° 12:50:44 10° 101° (E) 1,748 6.6 -24.9°
Sets 12:53:00 0° 94° (E) 2,642 7.5 -24.7°
